View from above orbital plane
|
View from above satellite
|
Ground track
|
The orbit data is extracted from the following two-line orbital elements,
1 00050U 60009B 21108.64517579 -.00000069 00000-0 15771-3 0 9996
2 00050 47.2305 254.0567 0114053 155.2838 205.3472 12.20116611707483
Epoch (UTC): | 18 April 2021 15:29:03 |
Eccentricity: | 0.0114053 |
inclination: | 47.2305° |
perigee height: | 1501 km |
apogee height: | 1683 km |
right ascension of ascending node: | 254.0567° |
argument of perigee: | 155.2838° |
revolutions per day: | 12.20116611 |
mean anomaly at epoch: | 205.3472° |
orbit number at epoch: | 70748 |
The dashed part of the orbit path shows where the satellite is in the earth's shadow,
|
|